Regional Weather Roundup
Issued by NWS Upton, NY

Current Version | Previous Version | Graphics & Text | Print | Product List | Glossary Off
Versions: 1 2 3 4 5 6 7 8 9 10 11 12 13 14 15 16 17 18 19 20 21 22 23 24 25 26 27 28 29 30 31 32 33 34 35 36 37 38 39 40 41 42 43 44 45 46 47 48 49 50

000
ASUS41 KOKX 102205
RWROKX

REGIONAL WEATHER ROUNDUP
NATIONAL WEATHER SERVICE NEW YORK NY
600 PM EDT THU JUL 10 2014

NOTE: "FAIR" INDICATES FEW OR NO CLOUDS BELOW 12,000 FEET WITH NO
SIGNIFICANT WEATHER AND/OR OBSTRUCTIONS TO VISIBILITY.

NYZ071-072-176-178-NJZ106-104-102300-
NEW YORK CITY METRO AREA


CITY           SKY/WX    TMP DP  RH WIND       PRES   REMARKS
CENTRAL PARK   SUNNY     79  61  53 CALM      30.11S
LAGUARDIA APRT MOSUNNY   81  59  47 NE8       30.08S
KENNEDY INTL   PTSUNNY   77  61  57 SE10      30.10R
NEWARK/LIBERTY PTSUNNY   80  60  50 SE13G20   30.07S
BRNX BOT. GARD   N/A    N/A N/A N/A SE5       30.08F
TETERBORO      MOSUNNY   86  58  38 VRB6      30.06S
$$

NYZ177-179-078>081-102300-
LONG ISLAND NEW YORK

CITY           SKY/WX    TMP DP  RH WIND       PRES   REMARKS
FARMINGDALE    MOSUNNY   77  61  57 SE12      30.09R
ISLIP          PTSUNNY   80  62  54 SE9       30.08R
SHIRLEY          N/A    N/A N/A N/A MISG      30.10R
WESTHAMPTON    MOSUNNY   76  62  62 E6        30.11R
MONTAUK POINT    N/A     77  63  61 CALM      30.11R
$$

NYZ052-065-067-102300-
HUDSON VALLEY

CITY           SKY/WX    TMP DP  RH WIND       PRES   REMARKS
WHITE PLAINS   MOSUNNY   78  60  53 S6        30.09S
NEWBURGH       MOSUNNY   79  61  53 E6        30.11F
MONTGOMERY     MOSUNNY   81  61  50 NW3       30.09F
POUGHKEEPSIE   MOSUNNY   81  57  43 CALM      30.08F
ALBANY         PTSUNNY   78  50  37 NW8       30.11F
$$

NJZ001-105-106-008-010-013-015-019>022-104-102300-
NEW JERSEY

CITY           SKY/WX    TMP DP  RH WIND       PRES   REMARKS
NEWARK/LIBERTY PTSUNNY   80  60  50 SE13G20   30.07S
TETERBORO      MOSUNNY   86  58  38 VRB6      30.06S
CALDWELL       SUNNY     82  60  47 NE3       30.07F
MORRISTOWN     MOSUNNY   81  63  54 NE3       30.07F
SOMERVILLE     PTSUNNY   81  65  58 CALM      30.05S
LINDEN         FAIR      82  60  47 SE10      30.10R
SUSSEX         CLOUDY    78  64  61 W3        30.11S
ANDOVER          N/A     68  65  90 N6        30.12R
TRENTON        SUNNY     83  60  45 E9        30.06S
MILLVILLE      LGT RAIN  73  71  93 E9        30.08S
ATLANTIC CITY  CLOUDY    71  69  93 E6        30.10R
WRIGHTSTOWN    MOSUNNY   79  64  60 E9        30.06R
TOMS RIVER     PTSUNNY   73  63  68 E6        30.10R
BELMAR         MOSUNNY   75  61  60 E9        30.10R
$$

PAZ047>061-062-071-102300-
EASTERN PENNSYLVANIA

CITY           SKY/WX    TMP DP  RH WIND       PRES   REMARKS
PHILADELPHIA   PTSUNNY   84  62  47 SE10      30.06S
ALLENTOWN      CLOUDY    73  66  78 NE10      30.09R
SCRANTON       PTSUNNY   78  57  48 N7        30.12S
$$

CTZ002-004>006-009-010-012-RIZ004-006-007-MAZ004-011-015-102300-
SOUTHERN NEW ENGLAND
 IN CT

CITY           SKY/WX    TMP DP  RH WIND       PRES   REMARKS
BRADLEY INTL   MOSUNNY   83  53  35 VRB3      30.07F
HARTFORD       SUNNY     83  52  34 W5        30.07S
DANBURY        SUNNY     80  57  45 N5        30.11S
WTRBRY/OXFORD  MOSUNNY   79  61  53 NW5       30.13F
BRIDGEPORT     SUNNY     77  61  57 S8        30.09S
MERIDEN        SUNNY     82  57  42 CALM      30.08S
NEW HAVEN      MOSUNNY   79  62  56 S5        30.09S
CHESTER        FAIR      79  61  53 CALM      30.11R
GROTON         MOSUNNY   72  64  76 S6        30.08S
WILLIMANTIC    SUNNY     82  56  40 NW6       30.09S

 IN RI

CITY           SKY/WX    TMP DP  RH WIND       PRES   REMARKS
PROVIDENCE     PTSUNNY   81  59  47 VRB3      30.08S
BLOCK ISLAND   PTSUNNY   75  63  64 CALM      30.10R
WESTERLY       MOSUNNY   75  61  61 S7        30.09S

 IN MA

CITY           SKY/WX    TMP DP  RH WIND       PRES   REMARKS
BOSTON         MOSUNNY   82  55  39 W8        30.07F
WORCESTER      SUNNY     76  56  49 W6        30.12F
WESTFIELD      SUNNY     82  51  34 NW8       30.08F
PROVINCETOWN   NOT AVBL
NANTUCKET      CLOUDY    70  66  87 SE5       30.09S
$$

ANZ330-335-338-340-345-350-353-355-102300-
COASTAL MARINE OBSERVATIONS


STATION/POSITION TIME  SKY/WX   TEMP    WIND        PRES    VSBY  WAVE
                                AIR SEA DIR/SP/G                  HT/PER
                 (UTC)          (F)     (DEG/KT/KT) (MB)    (MI)  (FT/S)
NY HARB ENTRANCE NOT AVBL
4S FIRE IS       2100               69                N/A           3/ 7
23SW MTP         2200            71 67              1018.7          4/ 7
HUDSON CANYON    2200            70 70   80/  6/  6 1018.6          3/ 7
EXECUTION ROCKS  2200            73 68   60/  2/  4   N/A
WESTERN LI SOUND 2200            76     130/  4/  6   N/A           0
CENTRAL LI SOUND 2100            74 73  170/  6/  6   N/A           0
EASTERN LI SOUND 2100            71 67  190/  6/  6   N/A
ROBBINS REEF     2200            72     170/ 18/ 19   N/A
$$


>>>>>>>>>>>>>>>>>>>>>>>>>>>> KEY <<<<<<<<<<<<<<<<<<<<<<<<<<<
>                                                          <
>     SKY/WX - SKY CONDITION/PRESENT WEATHER               <
>     TMP    - TEMPERATURE IN FAHRENHEIT                   <
>     DP     - DEWPOINT IN FAHRENHEIT                      <
>     RH     - RELATIVE HUMIDITY IN PERCENT                <
>     WIND   - DIRECTION AND SPEED IN MPH                  <
>     PRES   - MEAN SEA LEVEL PRESSURE IN INCHES OF HG     <
>     WCI    - WIND CHILL INDEX                            <
>     VSB    - VISIBILITY IN MILES                         <
>     HX     - HEAT INDEX                                  <
>     TC     - TEMPERATURE IN CELSIUS                      <
>     VRB    - VARIABLE WIND DIRECTION                     <
>                                                          <
>>>>>>>>>>>>>>>>>>>>>>>>>>>> KEY <<<<<<<<<<<<<<<<<<<<<<<<<<<




USA.gov is the U.S. government's official web portal to all federal, state and local government web resources and services.